User: anonymous
Location: Vancouver
(49.2500°N, 123.1330°W)
Time: 08:08:43
(UTC-07:00)
Language:

deb Explorer IX - Orbit

View from above orbital plane
View from above orbital plane
View from above satellite
View from above satellite

Ground track
Ground track

The orbit data is extracted from the following two-line orbital elements,

1 00085U 61004C   14292.69375531  .00033083  00000-0  86326-2 0   570
2 00085 038.7688 062.5278 0447046 129.3854 234.7366 14.02826577637753
Epoch (UTC): 19 October 2014 16:39:00
Eccentricity: 0.0447046
inclination: 38.7688°
perigee height: 559 km
apogee height: 1208 km
right ascension of ascending node: 62.5278°
argument of perigee: 129.3854°
revolutions per day: 14.02826577
mean anomaly at epoch: 234.7366°
orbit number at epoch: 63775

The dashed part of the orbit path shows where the satellite is in the earth's shadow,  

DLR